Location: Beau Repaire
(50.6144°N, 4.0551°E)
Time: 05:32:26
(UTC+00:00)

COSMOS 2406 - Pass Details

Date: 15 May 2026
Orbit: 846 x 859 km, 71.0° (Epoch: 6 June)

Event Time Altitude Azimuth Distance (km) Brightness Sun altitude
Rises 21:22:19 0° 223° (SW) 3,424 6.2 -14.0°
Reaches altitude 10° 21:24:49 10° 227° (SW) 2,491 5.5 -14.3°
Maximum altitude 21:30:27 56° 305° (NW) 1,021 4.0 -14.7°
Drops below altitude 10° 21:36:06 10° 24° (NNE) 2,500 6.1 -15.2°
Sets 21:38:37 0° 29° (NNE) 3,439 6.8 -15.4°
